FW3030 Weather Reports


time (UTC)temp
C
wind
direction
speed
KPH
gust
KPH
rain 1hr
cm
rain 24hr
cm
rain mn
cm
humidity
%
barometer
mb
20260906191609 27 161 1.6 8.0 0.00 0.00 0.00 70 1018.0
20260906190108 28 56 1.6 9.7 0.00 0.00 0.00 67 1017.6
20260906184603 28 140 1.6 8.0 0.00 0.00 0.00 65 1017.9
20260906183106 29 184 1.6 8.0 0.00 0.00 0.00 64 1017.8
20260906181604 29 148 3.2 11.3 0.00 0.00 0.00 64 1017.9
20260906180135 28 47 1.6 8.0 0.00 0.00 0.00 66 1017.9
20260906174606 28 178 1.6 14.5 0.00 0.00 0.00 67 1017.8
20260906173108 28 0 3.2 14.5 0.00 0.00 0.00 66 1017.9
20260906171606 28 101 1.6 8.0 0.00 0.00 0.00 68 1017.9
20260906170108 28 51 3.2 11.3 0.00 0.00 0.00 67 1018.0
20260906164605 28 62 1.6 11.3 0.00 0.00 0.00 69 1018.4
20260906163104 27 205 1.6 6.4 0.00 0.00 0.00 71 1018.3
20260906161602 27 118 1.6 8.0 0.00 0.00 0.00 74 1018.5
20260906160105 26 48 3.2 8.0 0.00 0.00 0.00 74 1018.6
20260906154606 25 70 1.6 8.0 0.00 0.00 0.00 79 1018.5
20260906153118 24 53 3.2 8.0 0.00 0.00 0.00 82 1018.7
20260906151608 23 360 1.6 4.8 0.00 0.00 0.00 84 1019.0
20260906150106 23 132 0.0 6.4 0.00 0.00 0.00 86 1018.9
20260906144608 22 92 0.0 8.0 0.00 0.00 0.00 88 1019.1
20260906143111 22 27 0.0 4.8 0.00 0.00 0.00 91 1019.2
20260906141612 21 0 0.0 6.4 0.00 0.00 0.00 92 1018.8
20260906140112 21 0 0.0 6.4 0.00 0.00 0.00 93 1018.8
20260906134615 20 170 1.6 4.8 0.00 0.00 0.00 94 1018.9
20260906133110 20 86 1.6 6.4 0.00 0.00 0.00 94 1018.7
20260906131604 19 0 0.0 4.8 0.00 0.00 0.00 94 1018.7
20260906130104 18 76 1.6 6.4 0.00 0.00 0.00 94 1018.7
20260906124600 18 0 0.0 4.8 0.00 0.00 0.00 93 1018.5
20260906123105 18 66 1.6 6.4 0.00 0.00 0.00 93 1018.3
20260906121607 18 71 0.0 4.8 0.00 0.00 0.00 93 1018.2
20260906114602 18 62 1.6 4.8 0.00 0.00 0.00 92 1018.3
20260906113105 17 0 0.0 3.2 0.00 0.00 0.00 91 1018.4
20260906111607 17 85 0.0 1.6 0.00 0.00 0.00 91 1018.4
20260906110105 18 0 0.0 0.0 0.00 0.00 0.00 91 1018.5
20260906104606 18 0 0.0 1.6 0.00 0.00 0.00 91 1018.4
20260906103112 18 0 0.0 1.6 0.00 0.00 0.00 91 1018.4
20260906101603 18 0 0.0 0.0 0.00 0.00 0.00 91 1018.3
20260906100105 18 0 0.0 3.2 0.00 0.00 0.00 91 1018.1
20260906094608 18 0 0.0 1.6 0.00 0.00 0.00 90 1017.9
20260906093107 18 0 0.0 1.6 0.00 0.00 0.00 90 1017.6
20260906091603 18 0 0.0 1.6 0.00 0.00 0.00 90 1017.3
20260906090118 18 0 0.0 1.6 0.00 0.00 0.00 90 1017.4
20260906084618 19 0 0.0 3.2 0.00 0.00 0.00 90 1017.1
20260906083116 19 0 0.0 3.2 0.00 0.00 0.00 90 1017.3
20260906081606 19 0 0.0 1.6 0.00 0.00 0.00 89 1017.3
20260906080127 20 0 0.0 1.6 0.00 0.00 0.00 89 1017.2
20260906074610 20 0 0.0 1.6 0.00 0.00 0.00 89 1017.2
20260906073114 20 0 0.0 3.2 0.00 0.00 0.00 89 1017.5
20260906071603 20 0 0.0 1.6 0.00 0.00 0.00 88 1017.8
20260906070111 20 0 0.0 1.6 0.00 0.00 0.00 88 1017.9
20260906064611 20 0 0.0 0.0 0.00 0.00 0.00 88 1018.1
20260906063103 20 0 0.0 1.6 0.00 0.00 0.00 88 1018.0
20260906061606 20 0 0.0 1.6 0.00 0.00 0.00 88 1018.1
20260906060106 20 0 0.0 3.2 0.00 0.00 0.00 87 1017.9
20260906054606 20 0 0.0 1.6 0.00 0.00 0.00 87 1017.9
20260906053105 20 0 0.0 0.0 0.00 0.00 0.00 86 1017.9
20260906051607 21 0 0.0 3.2 0.00 0.00 0.00 86 1017.9
20260906050109 21 0 0.0 3.2 0.00 0.00 0.00 86 1017.8
20260906044606 21 0 0.0 3.2 0.00 0.00 0.00 86 1017.8
20260906043104 21 0 0.0 4.8 0.00 0.00 0.00 86 1017.8
20260906041606 21 0 0.0 3.2 0.00 0.00 0.00 86 1017.9
20260906040104 21 0 0.0 3.2 0.00 0.00 0.00 85 1017.9
20260906034640 21 51 0.0 3.2 0.00 0.00 0.00 85 1018.0
20260906033104 21 44 0.0 3.2 0.00 0.00 0.00 85 1018.1
20260906031605 21 0 0.0 6.4 0.00 0.00 0.00 85 1017.9
20260906030108 21 41 1.6 4.8 0.00 0.00 0.00 84 1018.0
20260906024604 21 36 1.6 3.2 0.00 0.00 0.00 83 1018.0
20260906023105 21 36 1.6 4.8 0.00 0.00 0.00 83 1017.9
20260906021612 22 30 1.6 3.2 0.00 0.00 0.00 82 1017.7
20260906020108 22 28 0.0 3.2 0.00 0.00 0.00 81 1017.6
20260906014604 22 0 0.0 3.2 0.00 0.00 0.00 80 1017.5
20260906013109 23 24 0.0 3.2 0.00 0.00 0.00 79 1017.3
20260906011607 23 22 1.6 4.8 0.00 0.00 0.00 77 1016.8
20260906010107 23 37 1.6 4.8 0.00 0.00 0.00 76 1016.5
20260906004605 24 90 0.0 4.8 0.00 0.00 0.00 75 1016.0
20260906003101 25 0 0.0 4.8 0.00 0.00 0.00 73 1015.8
20260906001605 25 37 1.6 4.8 0.00 0.00 0.00 71 1015.6
20260906000112 26 0 0.0 3.2 0.00 0.00 0.00 70 1015.7
20260905234621 26 117 0.0 6.4 0.00 0.00 0.00 69 1015.5
20260905233110 26 79 1.6 11.3 0.00 0.00 0.00 67 1015.2
20260905231608 27 40 1.6 9.7 0.00 0.00 0.00 66 1015.4
20260905230109 27 36 3.2 11.3 0.00 0.00 0.00 65 1015.7
20260905224624 28 80 3.2 8.0 0.00 0.00 0.00 64 1015.8
20260905223107 28 49 4.8 11.3 0.00 0.00 0.00 63 1015.6
20260905221605 28 49 4.8 12.9 0.00 0.00 0.00 62 1015.6
20260905220118 29 76 3.2 8.0 0.00 0.00 0.00 62 1015.7
20260905214606 29 48 3.2 9.7 0.00 0.00 0.00 62 1015.7
20260905213104 30 36 4.8 11.3 0.00 0.00 0.00 61 1015.7
20260905211605 29 122 1.6 8.0 0.00 0.00 0.00 63 1015.6
20260905210109 28 36 3.2 14.5 0.00 0.00 0.00 65 1015.7
20260905204603 28 42 4.8 11.3 0.00 0.00 0.00 65 1016.1
20260905203117 28 103 4.8 16.1 0.00 0.00 0.00 66 1016.2
20260905201604 28 52 3.2 12.9 0.00 0.00 0.00 66 1016.7
20260905200108 28 40 3.2 11.3 0.00 0.00 0.00 66 1017.3
20260905194609 28 49 3.2 9.7 0.00 0.00 0.00 67 1017.4
20260905193104 27 71 1.6 6.4 0.00 0.00 0.00 70 1017.2